Debrecen, Hungary

9:43 AM CET on December 13, 2017 (GMT +0100)
Debrecen

Weather History for LHDC - September, 2012

Change the Weather History Date:

Monday, September 10, 2012

  Actual Average Record
Temperature  
Mean Temperature 69 °F -  
Max Temperature 85 °F 69 °F - ()
Min Temperature 54 °F 48 °F - ()
Cooling Degree Days 4    
Growing Degree Days 19 (Base 50)    
Moisture  
Dew Point 52 °F    
Average Humidity 51    
Maximum Humidity 82    
Minimum Humidity 25    
Precipitation  
Precipitation 0.00 in 0.05 in - ()
Sea Level Pressure  
Sea Level Pressure 30.14 in    
Wind  
Wind Speed 6 mph ()    
Max Wind Speed 10 mph    
Max Gust Speed -    
T = Trace of Precipitation, MM = Missing Value Source: Averaged Metar Reports

Daily Weather History Graph

Daily Weather History Graph

Search for Another Location

Airport or City:

Trip Planner

Search our weather history database for the weather conditions in past years. The results will help you decide how hot, cold, wet, or windy it might be!

Date:

Astronomy

Sep. 10, 2012 Rise Set
Actual Time 6:04 AM CEST 6:55 PM CEST
Civil Twilight 5:33 AM CEST 7:26 PM CEST
Nautical Twilight 4:56 AM CEST 8:03 PM CEST
Astronomical Twilight 4:16 AM CEST 8:42 PM CEST
Moon No Moon Rise 3:29 PM CEST (9/10)
Length of Visible Light 13h 53m
Length of Day
12h 50m
Waning Crescent, 32% of the Moon is Illuminated
Sep 10
Waning Crescent
Sep 16
New
Sep 22
First Quarter
Sep 30
Full
Oct 8
Last Quarter

Hourly Weather History & Observations

Time (CEST) Temp. Dew Point Humidity Pressure Visibility Wind Dir Wind Speed Gust Speed Precip Events Conditions
2:00 AM 58 °F 51 °F 69% 30.16 in - ENE 6.7 mph - -  
4:45 AM 55.4 °F 50.0 °F 82% 30.15 in - NE 8.1 mph - N/A   Clear
5:45 AM 55.4 °F 50.0 °F 82% 30.15 in - NE 9.2 mph - N/A   Clear
6:15 AM 55.4 °F 50.0 °F 82% 30.18 in - NE 8.1 mph - N/A   Clear
6:45 AM 55.4 °F 50.0 °F 82% 30.18 in - NE 6.9 mph - N/A   Clear
7:00 AM - - N/A% - - ENE 9.2 mph - N/A   Clear
7:15 AM 59.0 °F 50.0 °F 72% 30.18 in - ENE 9.2 mph - N/A   Clear
7:45 AM 59.0 °F 51.8 °F 77% 30.18 in - NE 9.2 mph - N/A   Clear
8:00 AM 60 °F 51 °F 64% 30.18 in 25 mi NE 8.9 mph - -   Partly Cloudy
8:15 AM 62.6 °F 51.8 °F 68% 30.18 in - NE 10.4 mph - N/A   Clear
8:45 AM 66.2 °F 53.6 °F 64% 30.15 in - North - - N/A   Clear
9:45 AM 71.6 °F 51.8 °F 50% 30.15 in - North - - N/A   Clear
10:00 AM - - N/A% - - East 5.8 mph - N/A   Clear
10:45 AM 75.2 °F 51.8 °F 44% 30.15 in - North - - N/A   Clear
11:45 AM 77.0 °F 50.0 °F 39% 30.15 in - North - - N/A   Clear
12:45 PM 82.4 °F 51.8 °F 35% 30.12 in - North - - N/A   Clear
1:00 PM - - N/A% - - East 5.8 mph - N/A   Clear
1:45 PM 82.4 °F 51.8 °F 35% 30.12 in - North - - N/A   Clear
2:00 PM 83 °F 53 °F 25% 30.13 in 31 mi East 4.5 mph - -   Partly Cloudy
2:45 PM 82.4 °F 51.8 °F 35% 30.12 in - SSE 4.6 mph - N/A   Clear
3:15 PM 84.2 °F 51.8 °F 33% 30.12 in - NE 5.8 mph - N/A   Clear
3:45 PM 84.2 °F 51.8 °F 33% 30.12 in - East 4.6 mph - N/A   Clear
4:00 PM - - N/A% - - East 5.8 mph - N/A   Clear
4:45 PM 84.2 °F 51.8 °F 33% 30.12 in - East 4.6 mph - N/A   Clear
5:15 PM 84.2 °F 51.8 °F 33% 30.12 in - East 5.8 mph - N/A   Clear
5:45 PM 82.4 °F 51.8 °F 35% 30.12 in - ENE 4.6 mph - N/A   Clear
6:15 PM 80.6 °F 51.8 °F 37% 30.09 in - ENE 6.9 mph - N/A   Clear
6:45 PM 77.0 °F 53.6 °F 44% 30.09 in - ENE 6.9 mph - N/A   Clear
7:15 PM 73.4 °F 51.8 °F 47% 30.09 in - ENE 6.9 mph - N/A   Clear
7:45 PM 73.4 °F 53.6 °F 50% 30.09 in - ENE 5.8 mph - N/A   Clear
8:00 PM 72 °F 53 °F 40% 30.09 in 25 mi ENE 6.7 mph - -   Partly Cloudy
8:00 PM - - N/A% - - North - - N/A   Unknown